Republic Airport
KFRG : now visible

Airfield :











YOU CAN JOIN US ON...

 
LOGIN :

Register | Disclaimer

   EN    FR    IT 

 









Legend :    VFR   Marginal VFR   IFR   Intensive IFR   Very Intensive IFR
Visi :
Ceiling :
>= 8 km
>= 3000ft
5 to 8 km
1000 to 3000 ft
1500m to 5 km
500 to 1000 ft
800 to 1500m
200 to 500 ft
< 800m
< 200 ft
Symbols :   Thunderstorms  Fog  Heavy snow  Heavy precipitations  Wind > 20 kt






- Airport Elevation : 82 ft


KFRG - Republic

CURRENT METAR :
  • 071953Z AUTO 20014KT 10SM CLR 16/01 A2982 RMK AO2 SLP097 T01610011

EXPIRED METARs :
  • 071853Z AUTO 20012KT 10SM CLR 17/02 A2984 RMK AO2 WSHFT 1740 SLP104 T01720017
  • 071800Z AUTO 21012KT 10SM CLR 18/02 A2987 RMK AO2 WSHFT 1740 T01780022
  • 071753Z AUTO 21011KT 10SM CLR 17/03 A2987 RMK AO2 WSHFT 1739 SLP117 T01720028 10183 20117 56029

TAF N/A



MET'MAP, your aeronautical weather chart ! - Copyright ORBIFLY December 2007 - Disclaimer

ORBIFLY MET'MAP TEAM :

Programming & Development : Alexandra Zaïnal
Concept & original design : Baudouin d'Aumeries
Assistance for programming : Marc-Olivier Méhu
Technical & hardware support : Manuel Goepfert

Contact : metmap@orbifly.com




SOURCES & CREDITS :

   NOAA       Earth
Advisory